Regional Weather Roundup
Issued by NWS

Home | Current Version | Previous Version | Text Only | Print | Product List | Glossary On
Versions: 1 2 3 4 5 6 7 8 9 10 11 12 13 14 15 16 17 18 19 20 21 22 23 24 25 26 27 28 29 30 31 32 33 34 35 36 37 38 39 40 41 42 43 44 45 46 47 48 49 50
000
ASUS43 KDTX 271710
RWRMI
MICHIGAN HOURLY REGIONAL WEATHER ROUNDUP
NATIONAL WEATHER SERVICE DETROIT/PONTIAC MI
1200 PM EST MON JAN 27 2020

NOTE: "FAIR" INDICATES FEW OR NO CLOUDS BELOW 12,000 FEET WITH NO
SIGNIFICANT WEATHER AND/OR OBSTRUCTION TO VISIBILITY.

MIZ047>049-052>055-059>063-066>070-074>076-081>083-271800-
SOUTHEAST LOWER MICHIGAN

CITY           SKY/WX    TMP DP  RH WIND       PRES   REMARKS
ADRIAN         CLOUDY    34  28  79 NW7       29.90S WCI  28
ALMA           CLOUDY    36  29  78 W7        29.90S WCI  30
ANN ARBOR      CLOUDY    35  28  75 N9        29.88S WCI  28
BAD AXE        CLOUDY    32  29  90 N8        29.86S WCI  25
CARO           CLOUDY    35  30  81 NW6       29.87F WCI  30
DETROIT CITY   CLOUDY    35  29  78 NW7       29.88R WCI  29
DETROIT        CLOUDY    35  30  82 NW9       29.88S WCI  28
FLINT          CLOUDY    35  29  78 NW7       29.89R WCI  29
GROSSE ILE     CLOUDY    36  30  80 NW8       29.88S WCI  29
HILLSDALE      CLOUDY    32  28  86 W7        29.88F WCI  25
HOWELL         CLOUDY    33  29  86 NW6       29.88S WCI  28

CITY           SKY/WX    TMP DP  RH WIND       PRES   REMARKS
JACKSON        CLOUDY    34  27  75 NW7       29.89S WCI  28
LAMBERTVILLE   CLOUDY    36  30  78 NW8       29.90S WCI  30
LANSING        CLOUDY    33  27  78 NW9       29.90S WCI  25
LAPEER         CLOUDY    33  28  79 N7        29.87S WCI  27
MASON          CLOUDY    33  29  85 NW9       29.89F WCI  25
MONROE         CLOUDY    36  31  84 NW7       29.88F WCI  30
MT. CLEMENS    CLOUDY    35  34  98 NW8       29.86R WCI  28
PONTIAC        CLOUDY    33  28  81 N9        29.85S WCI  25
PORT HOPE        N/A     32  27  81 NW13      29.85S WCI  22
PORT HURON     CLOUDY    32  28  86 NW8       29.87S WCI  25
TRI CITIES     CLOUDY    35  27  72 NW6       29.89S WCI  30
MIDLAND        CLOUDY    34  28  76 N9        29.89S WCI  27
TROY           CLOUDY    34  31  88 NW5       29.89S WCI  30
SAGINAW HB     CLOUDY    34  30  86 W7        29.89R WCI  28
$$
MIZ043>046-050>051-056>058-064>065-071>073-077>080-271800-
SOUTHWEST LOWER MICHIGAN

CITY           SKY/WX    TMP DP  RH WIND       PRES   REMARKS
BATTLE CREEK   CLOUDY    33  29  85 NW9       29.91S WCI  25
BENTON HARBOR  CLOUDY    37  31  78 VRB7      29.95R WCI  32
BIG RAPIDS     CLOUDY    33  28  82 NW6       29.90S WCI  28
COLDWATER      CLOUDY    32  32  99 NW7       29.91S WCI  26
FREMONT        CLOUDY    33  33 100 NW9       29.93R WCI  26
HOLLAND        PTSUNNY   37  28  70 NW8       29.94R WCI  31
GRAND RAPIDS   CLOUDY    35  28  75 NW9       29.92R WCI  28
IONIA          CLOUDY    34  29  82 W9        29.90S WCI  26
KALAMAZOO      CLOUDY    34  27  75 N10       29.93R WCI  26
LUDINGTON      LGT SNOW  33  32  95 N8        29.94S WCI  26
MARSHALL       CLOUDY    34  28  80 W5        29.90S WCI  29
MOUNT PLEASANT CLOUDY    37  29  74 NW6       29.89S WCI  32
MUSKEGON       CLOUDY    36  29  75 NW9       29.94S WCI  29
SOUTH HAVEN    CLOUDY    36  32  86 N6        29.95S WCI  31
$$
MIZ016>042-271800-
NORTHERN LOWER MICHIGAN

CITY           SKY/WX    TMP DP  RH WIND       PRES   REMARKS
ALPENA         CLOUDY    31  25  78 NW9       29.88S WCI  23
BEAVER ISLAND  CLOUDY    32  27  80 N7        29.94R WCI  26
BELLAIRE       CLOUDY    32  26  80 N6        29.93S WCI  26
CADILLAC       CLOUDY    32  28  86 NW7       29.87S WCI  25
CHARLEVOIX     CLOUDY    31  26  78 N8        29.92S WCI  24
FRANKFORT      LGT SNOW  33  30  90 N6        29.94R WCI  27
GAYLORD        CLOUDY    28  25  88 VRB3      29.87S
GRAYLING         N/A     30  27  88 NW7       29.87S WCI  24
HARBOR SPRINGS CLOUDY    32  27  80 N5        29.91S WCI  27
HOUGHTON LAKE  CLOUDY    32  26  78 N8        29.87S WCI  25
MANISTEE       CLOUDY    36  32  87 NW10      29.93F WCI  28
PELLSTON       CLOUDY    31  25  78 N7        29.91S WCI  24
ROGERS CITY    CLOUDY    30  25  81 NW8       29.90S WCI  23
TRAVERSE CITY  CLOUDY    34  30  85 N8        29.92R WCI  27
$$
MIZ007>008-015-271800-
EASTERN UPPER MICHIGAN

CITY           SKY/WX    TMP DP  RH WIND       PRES   REMARKS
KINROSS        CLOUDY    33  25  72 N9        29.90F WCI  25
MACKINAC ISLAN CLOUDY    31  26  80 NW7       29.90F WCI  25
NEWBERRY       CLOUDY    31  29  92 N6        29.92S WCI  25
S. S. MARIE    CLOUDY    32  23  69 N8        29.90F WCI  25
MUNISING         N/A     31  28  89 N12       29.96R WCI  22
$$
MIZ004>006-011>014-085-271800-
CENTRAL UPPER MICHIGAN

CITY           SKY/WX    TMP DP  RH WIND       PRES   REMARKS
MANISTIQUE     CLOUDY    32  29  89 N7        29.93S WCI  26
ESCANABA       CLOUDY    34  26  72 N6        29.97R WCI  29
MENOMINEE      CLOUDY    33  26  75 N8        29.99R WCI  26
SAWYER-GWINN   LGT SNOW  28  27  93 N14       29.95R WCI  17
$$
MIZ001>003-009>011-084-271800-
WESTERN UPPER MICHIGAN

CITY           SKY/WX    TMP DP  RH WIND       PRES   REMARKS
IRON MOUNTAIN  CLOUDY    31  23  72 NW9       29.95R WCI  23
HOUGHTON       CLOUDY    27  23  85 N9        29.98R WCI  18
COPPER HARBOR    N/A     26  23  88 N15       30.00S WCI  14
IRONWOOD       LGT SNOW  28  26  92 NW8       30.01S VSB 3/4 WCI  20
$$

ABBREVIATIONS USED IN REMARKS
   TC - TEMPERATURE IN CELSIUS
  WCI - WIND CHILL INDEX
   HX - HEAT INDEX
  VSB - VISIBILITY




USA.gov is the U.S. government's official web portal to all federal, state and local government web resources and services.